Weather History for Iliamna, AK

Change the Weather History Date:

Saturday, March 15, 2014

  Actual Average Record
Temperature  
Mean Temperature 6 °F -  
Max Temperature 12 °F 31 °F 44 °F (1986)
Min Temperature 1 °F 15 °F -21 °F (1971)
Degree Days  
Heating Degree Days 58    
Moisture  
Dew Point 0 °F    
Average Humidity 75    
Maximum Humidity 92    
Minimum Humidity 47    
Precipitation  
Precipitation 0.00 in - - ()
Sea Level Pressure  
Sea Level Pressure 29.78 in    
Wind  
Wind Speed 1 mph (ENE)    
Max Wind Speed 9 mph    
Max Gust Speed -    
Visibility 9 miles    
Events Snow    
Averages and records for this station are not official NWS values.
T = Trace of Precipitation, MM = Missing Value Source: NWS Daily Summary

Daily Weather History Graph

Daily Weather History Graph

Search for Another Location

Airport:

Trip Planner

Search our weather history database for the weather conditions in past years. The results will help you decide how hot, cold, wet, or windy it might be!

Date:

Astronomy

Mar. 15, 2014 Rise Set
Actual Time 8:35 AM AKDT 8:22 PM AKDT
Civil Twilight 7:54 AM AKDT 9:03 PM AKDT
Nautical Twilight 7:05 AM AKDT 9:52 PM AKDT
Astronomical Twilight 6:14 AM AKDT 10:44 PM AKDT
Moon 7:52 PM AKDT (3/15) 7:59 AM AKDT (3/15)
Length of Visible Light 13h 09m
Length of Day
11h 47m
Waxing Gibbous, 99% of the Moon is Illuminated
Mar 15
Waxing Gibbous
Mar 16
Full
Mar 23
Last Quarter
Mar 30
New
Apr 7
First Quarter

Hourly Weather History & Observations

Time (AKDT) Temp. Windchill Dew Point Humidity Pressure Visibility Wind Dir Wind Speed Gust Speed Precip Events Conditions
12:53 AM 3.0 °F - -0.9 °F 84% 29.65 in 10.0 mi Calm Calm - N/A   Overcast
1:53 AM 3.0 °F - -0.0 °F 87% 29.69 in 3.0 mi Calm Calm - 0.00 in Snow Light Snow
2:53 AM 3.0 °F - -0.0 °F 87% 29.71 in 10.0 mi Calm Calm - 0.00 in   Mostly Cloudy
3:37 AM 3.2 °F - -0.4 °F 85% 29.72 in 10.0 mi Calm Calm - N/A   Overcast
3:44 AM 3.2 °F - -0.4 °F 85% 29.72 in 10.0 mi Calm Calm - N/A   Overcast
3:53 AM 3.9 °F - 1.0 °F 88% 29.74 in 10.0 mi Calm Calm - N/A   Overcast
4:53 AM 6.1 °F - 1.9 °F 83% 29.77 in 6.0 mi Calm Calm - 0.00 in Snow Light Snow
5:53 AM 3.9 °F - 1.0 °F 88% 29.79 in 10.0 mi Calm Calm - 0.00 in   Mostly Cloudy
6:53 AM 3.0 °F -8.0 °F 1.0 °F 91% 29.80 in 10.0 mi East 5.8 mph - N/A   Mostly Cloudy
7:53 AM 5.0 °F -4.1 °F 3.0 °F 92% 29.80 in 10.0 mi ENE 4.6 mph - 0.00 in   Overcast
8:22 AM 5.0 °F -5.6 °F 3.2 °F 92% 29.78 in 10.0 mi East 5.8 mph - N/A   Overcast
8:53 AM 6.1 °F -2.8 °F 3.0 °F 87% 29.81 in 9.0 mi SW 4.6 mph - N/A   Overcast
9:07 AM 6.8 °F - 3.2 °F 85% 29.80 in 1.8 mi Calm Calm - 0.00 in Snow Light Snow
9:29 AM 6.8 °F - 3.2 °F 85% 29.80 in 2.5 mi Calm Calm - 0.00 in Snow Light Snow
9:33 AM 6.8 °F - 3.2 °F 85% 29.80 in 8.0 mi Calm Calm - 0.00 in   Overcast
9:53 AM 7.0 °F - 1.9 °F 80% 29.83 in 10.0 mi Calm Calm - 0.00 in   Mostly Cloudy
10:53 AM 9.0 °F - 1.0 °F 70% 29.84 in 10.0 mi Calm Calm - N/A   Mostly Cloudy
11:00 AM 10.4 °F - 1.4 °F 67% 29.82 in 10.0 mi Calm Calm - N/A   Clear
11:53 AM 8.1 °F - 1.0 °F 73% 29.84 in 10.0 mi Calm Calm - N/A   Partly Cloudy
12:53 PM 10.9 °F - 1.0 °F 64% 29.84 in 10.0 mi Calm Calm - N/A   Partly Cloudy
1:53 PM 10.9 °F 4.7 °F -0.0 °F 61% 29.84 in 10.0 mi South 3.5 mph - N/A   Partly Cloudy
2:53 PM 10.9 °F - 1.0 °F 64% 29.84 in 10.0 mi Calm Calm - N/A   Partly Cloudy
3:53 PM 12.0 °F - 1.0 °F 61% 29.84 in 10.0 mi Calm Calm - N/A   Partly Cloudy
4:53 PM 12.0 °F 4.1 °F -0.0 °F 59% 29.83 in 10.0 mi East 4.6 mph - N/A   Partly Cloudy
5:53 PM 12.9 °F 5.2 °F -0.0 °F 56% 29.81 in 10.0 mi ENE 4.6 mph - N/A   Partly Cloudy
6:53 PM 10.9 °F 1.4 °F -0.9 °F 59% 29.79 in 10.0 mi East 5.8 mph - N/A   Partly Cloudy
7:53 PM 10.0 °F 1.8 °F -0.9 °F 61% 29.76 in 10.0 mi NE 4.6 mph - N/A   Partly Cloudy
8:53 PM 5.0 °F -5.6 °F -2.0 °F 73% 29.76 in 10.0 mi NNE 5.8 mph - N/A   Scattered Clouds
9:53 PM 5.0 °F -5.6 °F -2.9 °F 70% 29.75 in 10.0 mi NNE 5.8 mph - N/A   Mostly Cloudy
10:53 PM 5.0 °F -9.1 °F -4.0 °F 66% 29.73 in 10.0 mi NNE 9.2 mph - N/A   Scattered Clouds
11:53 PM 3.9 °F -8.2 °F -4.0 °F 70% 29.72 in 10.0 mi NNE 6.9 mph - N/A   Mostly Cloudy